Regional Weather Roundup
Issued by NWS Upton, NY

Current Version | Previous Version | Text Only | Print | Product List | Glossary Off
Versions: 1 2 3 4 5 6 7 8 9 10 11 12 13 14 15 16 17 18 19 20 21 22 23 24 25 26 27 28 29 30 31 32 33 34 35 36 37 38 39 40 41 42 43 44 45 46 47 48 49 50

000
ASUS41 KOKX 300705
RWROKX

REGIONAL WEATHER ROUNDUP
NATIONAL WEATHER SERVICE NEW YORK NY
300 AM EDT TUE SEP 30 2014

NOTE: "FAIR" INDICATES FEW OR NO CLOUDS BELOW 12,000 FEET WITH NO
SIGNIFICANT WEATHER AND/OR OBSTRUCTIONS TO VISIBILITY.

NYZ071-072-176-178-NJZ106-104-300800-
NEW YORK CITY METRO AREA


CITY           SKY/WX    TMP DP  RH WIND       PRES   REMARKS
CENTRAL PARK   CLOUDY    69  56  62 W3        29.95F
LAGUARDIA APRT CLOUDY    71  57  61 S5        29.92S
KENNEDY INTL   CLOUDY    67  62  84 SW6       29.93F
NEWARK/LIBERTY CLOUDY    67  60  78 SW6       29.93S
BRNX BOT. GARD   N/A     68  57  68 CALM      29.93F
TETERBORO      CLOUDY    66  59  78 CALM      29.91F
$$

NYZ177-179-078>081-300800-
LONG ISLAND NEW YORK

CITY           SKY/WX    TMP DP  RH WIND       PRES   REMARKS
FARMINGDALE    CLOUDY    68  64  87 CALM      29.93F
ISLIP          CLOUDY    67  65  93 SW3       29.91F
SHIRLEY        LGT RAIN  67  66  97 CALM      29.93F FOG
WESTHAMPTON    CLOUDY    67  65  93 NE5       29.94F
MONTAUK POINT    N/A     64  62  93 NE10      29.96F
$$

NYZ052-065-067-300800-
HUDSON VALLEY

CITY           SKY/WX    TMP DP  RH WIND       PRES   REMARKS
WHITE PLAINS     N/A     65  63  93 E3        29.93F FOG
NEWBURGH       MOCLDY    63  59  88 SE6       29.94F
MONTGOMERY     CLOUDY    58  56  93 CALM      29.92F
POUGHKEEPSIE   CLOUDY    62  60  93 CALM      29.92S
ALBANY         FOG       56  55  97 CALM      29.94S VSB 1
$$

NJZ001-105-106-008-010-013-015-019>022-104-300800-
NEW JERSEY

CITY           SKY/WX    TMP DP  RH WIND       PRES   REMARKS
NEWARK/LIBERTY CLOUDY    67  60  78 SW6       29.93S
TETERBORO      CLOUDY    66  59  78 CALM      29.91F
CALDWELL       CLOUDY    65  58  78 CALM      29.93F
MORRISTOWN     CLOUDY    64  59  82 CALM      29.92F
SOMERVILLE     CLOUDY    61  58  90 CALM      29.91F
LINDEN         CLOUDY    71  64  78 CALM      29.95S
SUSSEX         MOCLDY    59  56  89 CALM      29.93F FOG
ANDOVER          N/A     58  57  97 CALM      29.93F
TRENTON        CLOUDY    64  59  83 S5        29.92F
MILLVILLE      CLOUDY    63  62  97 CALM      29.93F
ATLANTIC CITY  CLOUDY    64  59  83 VRB3      29.93F
WRIGHTSTOWN    CLOUDY    62  62 100 CALM      29.91F FOG
TOMS RIVER     CLOUDY    63  61  94 CALM      29.93F
BELMAR         CLOUDY    64  59  82 CALM      29.93F
$$

PAZ047>061-062-071-300800-
EASTERN PENNSYLVANIA

CITY           SKY/WX    TMP DP  RH WIND       PRES   REMARKS
PHILADELPHIA   CLOUDY    66  62  87 CALM      29.93F
ALLENTOWN      FOG       59  57  94 E3        29.92F VSB 3/4
SCRANTON       PTCLDY    60  56  86 E3        29.92F
$$

CTZ002-004>006-009-010-012-RIZ004-006-007-MAZ004-011-015-300800-
SOUTHERN NEW ENGLAND
 IN CT

CITY           SKY/WX    TMP DP  RH WIND       PRES   REMARKS
BRADLEY INTL   CLOUDY    61  56  83 N9        29.97S
HARTFORD       CLOUDY    61  57  87 SE8       29.97S
DANBURY        CLOUDY    65  62  90 CALM      29.96S FOG
WTRBRY/OXFORD  CLOUDY    63  57  82 NE5       29.96F
BRIDGEPORT     CLOUDY    68  65  90 E13       29.94R
MERIDEN        CLOUDY    64  60  87 N7        29.95F
NEW HAVEN      CLOUDY    68  63  84 NE6       29.94S
CHESTER        CLOUDY    61  61 100 NE5       29.96F FOG
GROTON         CLOUDY    61  59  93 NE9       29.94F
WILLIMANTIC    CLOUDY    59  57  93 NE8       29.98F

 IN RI

CITY           SKY/WX    TMP DP  RH WIND       PRES   REMARKS
PROVIDENCE     CLOUDY    59  56  89 N13       29.99F
BLOCK ISLAND   CLOUDY    63  57  82 NE10      29.95F
WESTERLY       CLOUDY    61  58  90 NE7       29.96F

 IN MA

CITY           SKY/WX    TMP DP  RH WIND       PRES   REMARKS
BOSTON         CLOUDY    57  55  93 N8        30.02R
WORCESTER      LGT RAIN  53  53 100 NE9       30.01S VSB 3/4
WESTFIELD      CLOUDY    60  54  80 NE6       29.99S
PROVINCETOWN   CLOUDY    61  57  88 N10       29.97F
NANTUCKET      CLOUDY    64  63  96 N5        29.96S FOG
$$

ANZ330-335-338-340-345-350-353-355-300800-
COASTAL MARINE OBSERVATIONS


STATION/POSITION TIME  SKY/WX   TEMP    WIND        PRES    VSBY  WAVE
                                AIR SEA DIR/SP/G                  HT/PER
                 (UTC)          (F)     (DEG/KT/KT) (MB)    (MI)  (FT/S)
NY HARB ENTRANCE 0700            68 69  230/  6/  8 1013.8          1/ 8
4S FIRE IS       0700               69                N/A           2/ 8
20S FIRE ISLAND  0700            68 68  300/ 14/ 16 1012.9          2/ 7
23SW MTP         0700                                 N/A           2/ 8
HUDSON CANYON    0700            69 71  300/  4/  6 1013.5          2/ 8
EXECUTION ROCKS  0700            69 69  350/  4/  4   N/A
WESTERN LI SOUND 0700            69     350/  2/  2   N/A           0
CENTRAL LI SOUND 0600            65 69   90/ 17/ 19   N/A           1/ 2
EASTERN LI SOUND 0600            63 67   60/ 14/ 17   N/A
ROBBINS REEF     0700            69     230/  2/  3 1012.3
$$


>>>>>>>>>>>>>>>>>>>>>>>>>>>> KEY <<<<<<<<<<<<<<<<<<<<<<<<<<<
>                                                          <
>     SKY/WX - SKY CONDITION/PRESENT WEATHER               <
>     TMP    - TEMPERATURE IN FAHRENHEIT                   <
>     DP     - DEWPOINT IN FAHRENHEIT                      <
>     RH     - RELATIVE HUMIDITY IN PERCENT                <
>     WIND   - DIRECTION AND SPEED IN MPH                  <
>     PRES   - MEAN SEA LEVEL PRESSURE IN INCHES OF HG     <
>     WCI    - WIND CHILL INDEX                            <
>     VSB    - VISIBILITY IN MILES                         <
>     HX     - HEAT INDEX                                  <
>     TC     - TEMPERATURE IN CELSIUS                      <
>     VRB    - VARIABLE WIND DIRECTION                     <
>                                                          <
>>>>>>>>>>>>>>>>>>>>>>>>>>>> KEY <<<<<<<<<<<<<<<<<<<<<<<<<<<




USA.gov is the U.S. government's official web portal to all federal, state and local government web resources and services.